Location: Kellogg
(38.0159°N, 90.0546°W)
Time: 02:14:55
(UTC+00:00)

Transit 2A - Pass Details

Date: 16 September 2024
Orbit: 590 x 960 km, 66.7° (Epoch: 09 October)

Event Time Altitude Azimuth Distance (km) Brightness Sun altitude
Rises 11:05:46 0° 311° (NW) 3,574 9.1 -8.2°
Reaches altitude 10° 11:09:55 10° 285° (WNW) 2,561 8.1 -7.4°
Maximum altitude 11:12:22 13° 260° (W) 2,321 7.8 -6.9°
Drops below altitude 10° 11:14:44 10° 235° (SW) 2,460 8.1 -6.4°
Sets 11:18:35 0° 208° (SSW) 3,298 8.9 -5.7°
